Location: Bédeille
(43.0872°N, 1.1041°E)
Time: 13:50:55
(UTC+00:00)

Cosmos 468 Rocket - Pass Details

Date: 03 February 2023
Orbit: 744 x 778 km, 74.0° (Epoch: 19 March)

Event Time Altitude Azimuth Distance (km) Brightness Sun altitude
Rises 18:00:48 0° 343° (NNW) 3,218 7.3 -9.6°
Reaches altitude 10° 18:03:15 10° 349° (N) 2,284 6.4 -10.1°
Maximum altitude 18:08:18 52° 66° (ENE) 932 4.1 -10.9°
Drops below altitude 10° 18:13:16 10° 142° (SE) 2,255 6.2 -11.8°
Sets 18:15:40 0° 147° (SSE) 3,173 7.0 -12.3°
